Holland, MI

10:09 PM EST on February 20, 2017 (GMT -0500)
Tulip City

Weather History for KBIV - December, 2013

Change the Weather History Date:

Wednesday, December 4, 2013

  Actual Average Record
Temperature  
Mean Temperature 48 °F 35 °F  
Max Temperature 58 °F 40 °F 65 °F (2012)
Min Temperature 38 °F 29 °F 1 °F (1966)
Degree Days  
Heating Degree Days 17 30  
Month to date heating degree days 105 119  
Since 1 July heating degree days 1341 1342  
Cooling Degree Days 0 0  
Month to date cooling degree days 0 0  
Year to date cooling degree days 813 693  
Moisture  
Dew Point 45 °F    
Average Humidity 90    
Maximum Humidity 100    
Minimum Humidity 80    
Precipitation  
Precipitation 0.02 in 0.10 in 0.69 in (1955)
Month to date precipitation 0.37 0.40  
Year to date precipitation 38.88 34.56  
Sea Level Pressure  
Sea Level Pressure 29.72 in    
Wind  
Wind Speed 11 mph (ESE)    
Max Wind Speed 28 mph    
Max Gust Speed 39 mph    
Visibility 3 miles    
Events Rain    
T = Trace of Precipitation, MM = Missing Value Source: NWS Daily Summary

Daily Weather History Graph

Daily Weather History Graph

Search for Another Location

Airport or City:

Trip Planner

Search our weather history database for the weather conditions in past years. The results will help you decide how hot, cold, wet, or windy it might be!

Date:

Astronomy

Dec. 04, 2013 Rise Set
Actual Time 7:58 AM EST 5:10 PM EST
Civil Twilight 7:26 AM EST 5:42 PM EST
Nautical Twilight 6:51 AM EST 6:17 PM EST
Astronomical Twilight 6:17 AM EST 6:52 PM EST
Moon 9:25 AM EST (12/4) 7:21 PM EST (12/4)
Length of Visible Light 10h 15m
Length of Day
9h 12m
Waxing Crescent, 4% of the Moon is Illuminated
Dec 4
Waxing Crescent
Dec 9
First Quarter
Dec 17
Full
Dec 25
Last Quarter
Jan 1
New

Hourly Weather History & Observations

Time (EST) Temp. Windchill Dew Point Humidity Pressure Visibility Wind Dir Wind Speed Gust Speed Precip Events Conditions
12:53 AM 39.9 °F 35.1 °F 39.9 °F 100% 29.78 in 1.2 mi East 6.9 mph - 0.00 in   Overcast
1:18 AM 39.9 °F 36.7 °F 39.9 °F 100% 29.76 in 1.5 mi East 4.6 mph - N/A   Overcast
1:53 AM 39.9 °F 36.7 °F 39.9 °F 100% 29.80 in 1.8 mi East 4.6 mph - N/A   Overcast
2:19 AM 41.0 °F 38.0 °F 39.0 °F 93% 29.78 in 1.5 mi East 4.6 mph - N/A   Overcast
2:53 AM 41.0 °F 39.0 °F 39.9 °F 96% 29.82 in 1.8 mi ENE 3.5 mph - N/A   Overcast
3:03 AM 41.0 °F 39.0 °F 39.9 °F 96% 29.80 in 2.0 mi ENE 3.5 mph - N/A   Overcast
3:53 AM 41.0 °F 39.0 °F 39.9 °F 96% 29.81 in 2.0 mi ENE 3.5 mph - N/A   Overcast
4:06 AM 41.0 °F 39.0 °F 39.9 °F 96% 29.80 in 2.0 mi ENE 3.5 mph - N/A   Overcast
4:25 AM 41.0 °F 36.4 °F 39.9 °F 96% 29.79 in 1.8 mi ENE 6.9 mph - N/A   Overcast
4:53 AM 41.0 °F 38.0 °F 39.9 °F 96% 29.82 in 1.8 mi ENE 4.6 mph - N/A   Overcast
5:40 AM 41.0 °F 37.1 °F 39.0 °F 93% 29.80 in 2.0 mi East 5.8 mph - N/A   Overcast
5:53 AM 41.0 °F 37.1 °F 39.0 °F 93% 29.82 in 2.0 mi East 5.8 mph - N/A   Overcast
6:02 AM 41.0 °F 38.0 °F 39.0 °F 93% 29.80 in 1.8 mi East 4.6 mph - N/A   Overcast
6:17 AM 41.0 °F 36.4 °F 39.9 °F 96% 29.79 in 1.8 mi East 6.9 mph - N/A   Overcast
6:53 AM 41.0 °F 37.1 °F 39.0 °F 93% 29.81 in 1.8 mi East 5.8 mph - N/A   Overcast
7:03 AM 41.0 °F 35.8 °F 39.0 °F 93% 29.79 in 1.8 mi East 8.1 mph - N/A   Overcast
7:23 AM 41.0 °F 35.8 °F 39.0 °F 93% 29.79 in 2.0 mi East 8.1 mph - N/A   Overcast
7:41 AM 41.0 °F 35.8 °F 39.9 °F 96% 29.80 in 1.8 mi East 8.1 mph - N/A   Overcast
7:53 AM 41.0 °F 37.1 °F 39.0 °F 93% 29.81 in 1.5 mi East 5.8 mph - N/A   Overcast
8:08 AM 41.0 °F 35.8 °F 39.9 °F 96% 29.79 in 1.0 mi East 8.1 mph - N/A   Overcast
8:44 AM 42.1 °F 37.7 °F 39.9 °F 92% 29.79 in 1.0 mi East 6.9 mph - N/A   Overcast
8:53 AM 42.1 °F 37.1 °F 39.9 °F 92% 29.80 in 1.0 mi East 8.1 mph - N/A   Overcast
9:36 AM 45.0 °F 39.3 °F 43.0 °F 93% 29.77 in 1.8 mi ESE 11.5 mph - N/A   Mostly Cloudy
9:53 AM 46.0 °F 41.0 °F 44.1 °F 93% 29.78 in 2.0 mi ESE 10.4 mph - N/A   Overcast
10:17 AM 46.9 °F - 45.0 °F 93% 29.76 in 2.0 mi ESE 11.5 mph - N/A   Overcast
10:30 AM 46.9 °F - 45.0 °F 93% 29.76 in 1.8 mi ESE 12.7 mph - N/A   Overcast
10:53 AM 46.9 °F - 45.0 °F 93% 29.77 in 1.8 mi SE 12.7 mph - N/A   Overcast
11:53 AM 48.0 °F - 46.9 °F 96% 29.74 in 1.5 mi SE 11.5 mph - N/A   Overcast
12:27 PM 48.9 °F - 46.9 °F 93% 29.74 in 2.0 mi SSE 8.1 mph - N/A   Overcast
12:38 PM 48.9 °F - 46.9 °F 93% 29.74 in 2.5 mi SSE 8.1 mph - N/A   Overcast
12:50 PM 48.2 °F - 46.4 °F 93% 29.73 in 3.0 mi SSE 6.9 mph - N/A   Overcast
12:53 PM 48.9 °F - 46.9 °F 93% 29.74 in 3.0 mi SSE 5.8 mph - N/A   Overcast
1:00 PM 48.9 °F - 46.9 °F 93% 29.73 in 2.5 mi SSE 5.8 mph - N/A   Overcast
1:26 PM 48.9 °F - 46.9 °F 93% 29.69 in 3.0 mi East 8.1 mph - N/A   Overcast
1:53 PM 50.0 °F - 46.9 °F 89% 29.69 in 3.0 mi ESE 9.2 mph - N/A   Overcast
2:53 PM 50.0 °F - 48.0 °F 93% 29.64 in 4.0 mi ESE 13.8 mph - 0.00 in Rain Light Rain
3:53 PM 50.0 °F - 48.0 °F 93% 29.61 in 3.0 mi ESE 12.7 mph - 0.00 in   Overcast
4:27 PM 51.1 °F - 48.9 °F 92% 29.60 in 2.5 mi ESE 15.0 mph - 0.00 in Rain Light Rain
4:36 PM 51.1 °F - 48.9 °F 92% 29.60 in 3.0 mi ESE 11.5 mph - 0.00 in   Overcast
4:53 PM 51.1 °F - 48.9 °F 92% 29.60 in 3.0 mi SE 12.7 mph - 0.01 in Rain Light Rain
5:53 PM 52.0 °F - 50.0 °F 93% 29.59 in 3.0 mi SE 13.8 mph 21.9 mph 0.00 in   Overcast
6:53 PM 53.1 °F - 51.1 °F 93% 29.58 in 4.0 mi SSE 13.8 mph - 0.01 in   Overcast
7:23 PM 53.1 °F - 52.0 °F 96% 29.56 in 5.0 mi SSE 11.5 mph - N/A   Overcast
7:33 PM 54.0 °F - 52.0 °F 93% 29.56 in 5.0 mi SSE 13.8 mph - N/A   Overcast
7:53 PM 54.0 °F - 52.0 °F 93% 29.57 in 5.0 mi South 11.5 mph - N/A   Overcast
8:53 PM 55.9 °F - 53.1 °F 90% 29.55 in 6.0 mi South 10.4 mph - N/A   Overcast
9:46 PM 57.0 °F - 53.1 °F 87% 29.54 in 8.0 mi SW 23.0 mph 33.4 mph N/A   Scattered Clouds
9:53 PM 57.0 °F - 52.0 °F 83% 29.54 in 9.0 mi SW 25.3 mph 34.5 mph N/A   Partly Cloudy
10:53 PM 55.9 °F - 50.0 °F 80% 29.55 in 9.0 mi SW 19.6 mph 31.1 mph N/A   Scattered Clouds
11:53 PM 55.0 °F - 50.0 °F 83% 29.56 in 8.0 mi SW 19.6 mph 25.3 mph N/A   Partly Cloudy